EWG1AM EDDK-EGLL

Flight info

Callsign EWG1AM
Flight time 0h 54m
Altitude 30000
Route NVO3B NVO Y868 NAVAK DCT DENUT L608 LOGAN
Aircraft A320/M-SDE3FGHIRWY/LB1

Departure

Time 2026-04-25 14:20
Airport Cologne Bonn Airport (EDDK)

Arrival

Time 2026-04-25 15:14
Airport London Heathrow Airport (EGLL)
Time Latitude Longitude Altitude Speed Heading
2026-04-25 13:41 50.87761 7.12381 236 ft 0 kts 282°
2026-04-25 13:54 50.87761 7.12382 232 ft 0 kts 282°
2026-04-25 14:04 50.87761 7.12383 259 ft 1 kts 282°
2026-04-25 14:04 50.87756 7.12422 234 ft 4 kts 284°
2026-04-25 14:05 50.87748 7.12462 233 ft 4 kts 289°
2026-04-25 14:05 50.87738 7.12501 235 ft 4 kts 305°
2026-04-25 14:05 50.87720 7.12525 235 ft 3 kts 10°
2026-04-25 14:05 50.87713 7.12522 232 ft 0 kts 18°
2026-04-25 14:08 50.87712 7.12522 232 ft 0 kts 18°
2026-04-25 14:09 50.87713 7.12523 232 ft 1 kts 18°
2026-04-25 14:10 50.87745 7.12549 232 ft 4 kts 38°
2026-04-25 14:10 50.87759 7.12579 232 ft 5 kts 62°
2026-04-25 14:10 50.87769 7.12659 232 ft 8 kts 89°
2026-04-25 14:10 50.87731 7.12753 232 ft 16 kts 137°
2026-04-25 14:11 50.87651 7.12869 232 ft 15 kts 137°
2026-04-25 14:11 50.87580 7.12974 232 ft 14 kts 137°
2026-04-25 14:11 50.87495 7.13095 232 ft 19 kts 138°
2026-04-25 14:11 50.87386 7.13253 232 ft 24 kts 137°
2026-04-25 14:12 50.87253 7.13447 234 ft 27 kts 138°
2026-04-25 14:12 50.87120 7.13637 239 ft 25 kts 137°
2026-04-25 14:12 50.87001 7.13810 243 ft 21 kts 137°
2026-04-25 14:12 50.86908 7.13945 251 ft 15 kts 137°
2026-04-25 14:13 50.86849 7.14030 255 ft 10 kts 137°
2026-04-25 14:13 50.86802 7.14098 255 ft 9 kts 138°
2026-04-25 14:13 50.86753 7.14132 255 ft 7 kts 168°
2026-04-25 14:13 50.86708 7.14173 258 ft 10 kts 139°
2026-04-25 14:14 50.86634 7.14278 261 ft 19 kts 137°
2026-04-25 14:14 50.86514 7.14457 265 ft 28 kts 137°
2026-04-25 14:14 50.86376 7.14655 273 ft 25 kts 137°
2026-04-25 14:14 50.86257 7.14827 280 ft 22 kts 137°
2026-04-25 14:15 50.86140 7.14997 286 ft 24 kts 137°
2026-04-25 14:15 50.86063 7.15109 289 ft 21 kts 137°
2026-04-25 14:15 50.85935 7.15296 293 ft 16 kts 138°
2026-04-25 14:15 50.85860 7.15401 297 ft 13 kts 137°
2026-04-25 14:16 50.85781 7.15517 298 ft 20 kts 137°
2026-04-25 14:16 50.85653 7.15702 303 ft 26 kts 137°
2026-04-25 14:16 50.85527 7.15886 307 ft 23 kts 137°
2026-04-25 14:16 50.85415 7.16048 308 ft 21 kts 137°
2026-04-25 14:17 50.85344 7.16191 308 ft 15 kts 109°
2026-04-25 14:17 50.85342 7.16344 308 ft 13 kts 75°
2026-04-25 14:17 50.85378 7.16442 308 ft 8 kts 47°
2026-04-25 14:17 50.85421 7.16493 307 ft 11 kts 28°
2026-04-25 14:18 50.85502 7.16520 307 ft 13 kts
2026-04-25 14:18 50.85585 7.16475 308 ft 13 kts 320°
2026-04-25 14:18 50.85599 7.16455 309 ft 0 kts 316°
2026-04-25 14:19 50.85608 7.16442 308 ft 11 kts 317°
2026-04-25 14:19 50.85824 7.16128 304 ft 77 kts 317°
2026-04-25 14:19 50.86376 7.15325 285 ft 136 kts 317°
2026-04-25 14:20 50.87182 7.14138 389 ft 171 kts 316°
2026-04-25 14:20 50.87771 7.13286 901 ft 169 kts 316°
2026-04-25 14:20 50.88937 7.11592 1960 ft 182 kts 317°
2026-04-25 14:20 50.89906 7.10190 2468 ft 193 kts 318°
2026-04-25 14:21 50.90852 7.08647 3202 ft 194 kts 303°
2026-04-25 14:21 50.91283 7.06629 4028 ft 200 kts 275°
2026-04-25 14:21 50.91011 7.04334 4493 ft 228 kts 252°
2026-04-25 14:21 50.90462 7.01838 4961 ft 252 kts 253°
2026-04-25 14:22 50.89875 6.99144 5708 ft 263 kts 253°
2026-04-25 14:22 50.89279 6.96382 6555 ft 267 kts 254°
2026-04-25 14:22 50.88678 6.93577 7392 ft 271 kts 254°
2026-04-25 14:22 50.88072 6.90738 8238 ft 274 kts 254°
2026-04-25 14:23 50.87457 6.87868 9126 ft 277 kts 254°
2026-04-25 14:23 50.86838 6.84970 9962 ft 280 kts 254°
2026-04-25 14:23 50.86208 6.82012 10572 ft 291 kts 254°
2026-04-25 14:23 50.85536 6.78854 10833 ft 314 kts 254°
2026-04-25 14:24 50.84822 6.75521 11379 ft 324 kts 253°
2026-04-25 14:24 50.84087 6.72115 12087 ft 329 kts 253°
2026-04-25 14:24 50.83344 6.68675 12834 ft 333 kts 253°
2026-04-25 14:24 50.82629 6.65171 13562 ft 335 kts 258°
2026-04-25 14:25 50.82298 6.61520 14232 ft 337 kts 270°
2026-04-25 14:25 50.82337 6.57805 14885 ft 339 kts 273°
2026-04-25 14:25 50.82395 6.54063 15546 ft 342 kts 273°
2026-04-25 14:25 50.82414 6.52794 15758 ft 343 kts 273°
2026-04-25 14:26 50.82500 6.46477 16818 ft 348 kts 272°
2026-04-25 14:26 50.82546 6.42635 17445 ft 352 kts 272°
2026-04-25 14:26 50.82593 6.38754 18070 ft 355 kts 272°
2026-04-25 14:26 50.82637 6.34833 18658 ft 358 kts 272°
2026-04-25 14:27 50.82678 6.30879 19198 ft 361 kts 272°
2026-04-25 14:27 50.82718 6.26902 19768 ft 363 kts 273°
2026-04-25 14:27 50.82758 6.22898 20328 ft 365 kts 273°
2026-04-25 14:27 50.82798 6.18870 20890 ft 368 kts 273°
2026-04-25 14:28 50.82840 6.14808 21450 ft 370 kts 273°
2026-04-25 14:28 50.82876 6.10731 22005 ft 373 kts 273°
2026-04-25 14:28 50.82911 6.06613 22574 ft 375 kts 273°
2026-04-25 14:28 50.82944 6.02481 23111 ft 377 kts 273°
2026-04-25 14:29 50.82940 5.98313 23650 ft 380 kts 272°
2026-04-25 14:29 50.82904 5.94115 24093 ft 382 kts 275°
2026-04-25 14:29 50.83189 5.89950 24519 ft 381 kts 284°
2026-04-25 14:29 50.83874 5.85899 24956 ft 381 kts 288°
2026-04-25 14:30 50.84630 5.81871 25358 ft 383 kts 288°
2026-04-25 14:30 50.86184 5.73763 26167 ft 387 kts 288°
2026-04-25 14:30 50.86969 5.69676 26542 ft 389 kts 288°
2026-04-25 14:31 50.87755 5.65572 26922 ft 391 kts 288°
2026-04-25 14:31 50.88543 5.61437 27298 ft 393 kts 288°
2026-04-25 14:31 50.89328 5.57285 27666 ft 395 kts 288°
2026-04-25 14:31 50.90114 5.53109 28027 ft 397 kts 288°
2026-04-25 14:32 50.90902 5.48906 28379 ft 399 kts 288°
2026-04-25 14:32 50.91693 5.44682 28714 ft 401 kts 288°
2026-04-25 14:32 50.92485 5.40438 29054 ft 403 kts 288°
2026-04-25 14:32 50.93280 5.36168 29380 ft 405 kts 287°
2026-04-25 14:33 50.94078 5.31882 29704 ft 407 kts 287°
2026-04-25 14:33 50.94879 5.27575 30022 ft 408 kts 287°
2026-04-25 14:33 50.95681 5.23243 30315 ft 410 kts 287°
2026-04-25 14:33 50.96486 5.18895 30570 ft 412 kts 287°
2026-04-25 14:34 50.97293 5.14521 30814 ft 414 kts 287°
2026-04-25 14:34 50.98100 5.10132 31058 ft 415 kts 287°
2026-04-25 14:34 50.98633 5.07228 31210 ft 416 kts 287°
2026-04-25 14:34 50.99444 5.02810 31447 ft 418 kts 287°
2026-04-25 14:35 51.00255 4.98379 31747 ft 417 kts 287°
2026-04-25 14:35 51.01062 4.93960 32080 ft 416 kts 287°
2026-04-25 14:35 51.02643 4.85264 32196 ft 399 kts 286°
2026-04-25 14:36 51.04166 4.76877 32199 ft 393 kts 286°
2026-04-25 14:36 51.05671 4.68546 32196 ft 392 kts 286°
2026-04-25 14:37 51.07165 4.60209 32196 ft 392 kts 286°
2026-04-25 14:37 51.08652 4.51863 32192 ft 392 kts 286°
2026-04-25 14:38 51.10135 4.43511 32186 ft 392 kts 285°
2026-04-25 14:38 51.11607 4.35167 32186 ft 392 kts 285°
2026-04-25 14:39 51.13079 4.26791 32184 ft 392 kts 285°
2026-04-25 14:39 51.14547 4.18421 32185 ft 392 kts 285°
2026-04-25 14:40 51.16013 4.10042 32184 ft 393 kts 285°
2026-04-25 14:40 51.17458 4.01709 32183 ft 393 kts 285°
2026-04-25 14:41 51.18670 3.94672 32182 ft 393 kts 285°
2026-04-25 14:41 51.20116 3.86275 32185 ft 393 kts 285°
2026-04-25 14:42 51.21314 3.79279 32188 ft 393 kts 285°
2026-04-25 14:42 51.22986 3.69436 32193 ft 393 kts 285°
2026-04-25 14:43 51.25207 3.61487 32195 ft 395 kts 300°
2026-04-25 14:43 51.28019 3.53963 32199 ft 395 kts 299°
2026-04-25 14:44 51.30813 3.46402 32206 ft 395 kts 299°
2026-04-25 14:44 51.33599 3.38833 32208 ft 395 kts 299°
2026-04-25 14:45 51.35923 3.30896 32215 ft 394 kts 290°
2026-04-25 14:45 51.37863 3.22700 32214 ft 394 kts 290°
2026-04-25 14:46 51.39801 3.14487 32215 ft 394 kts 290°
2026-04-25 14:46 51.41745 3.06260 32220 ft 394 kts 290°
2026-04-25 14:47 51.43354 2.99425 32218 ft 395 kts 290°
2026-04-25 14:47 51.45607 2.89799 32217 ft 395 kts 289°
2026-04-25 14:48 51.47529 2.81549 32215 ft 395 kts 289°
2026-04-25 14:48 51.49435 2.73351 32220 ft 395 kts 289°
2026-04-25 14:49 51.51358 2.65036 32219 ft 395 kts 289°
2026-04-25 14:49 51.53247 2.56815 32223 ft 395 kts 289°
2026-04-25 14:50 51.55153 2.48534 32221 ft 395 kts 289°
2026-04-25 14:50 51.57052 2.40237 32222 ft 395 kts 289°
2026-04-25 14:51 51.58942 2.31926 32218 ft 396 kts 289°
2026-04-25 14:51 51.60843 2.23556 32215 ft 396 kts 289°
2026-04-25 14:52 51.61782 2.19412 31922 ft 392 kts 289°
2026-04-25 14:52 51.62709 2.15313 31452 ft 388 kts 288°
2026-04-25 14:52 51.63614 2.11303 30987 ft 384 kts 288°
2026-04-25 14:52 51.64229 2.08575 30673 ft 382 kts 288°
2026-04-25 14:53 51.65422 2.03277 30020 ft 378 kts 288°
2026-04-25 14:53 51.66310 1.99320 29565 ft 373 kts 288°
2026-04-25 14:53 51.67186 1.95404 29115 ft 369 kts 288°
2026-04-25 14:53 51.68062 1.91494 28693 ft 364 kts 288°
2026-04-25 14:54 51.68905 1.87720 28276 ft 361 kts 288°
2026-04-25 14:54 51.69760 1.83887 27847 ft 357 kts 288°
2026-04-25 14:54 51.70581 1.80192 27433 ft 354 kts 288°
2026-04-25 14:54 51.71404 1.76468 27019 ft 350 kts 288°
2026-04-25 14:55 51.72213 1.72783 26590 ft 347 kts 288°
2026-04-25 14:55 51.73017 1.69121 26168 ft 345 kts 288°
2026-04-25 14:55 51.73816 1.65493 25736 ft 343 kts 288°
2026-04-25 14:55 51.74419 1.61798 25308 ft 339 kts 277°
2026-04-25 14:56 51.74558 1.58006 24815 ft 340 kts 267°
2026-04-25 14:56 51.74333 1.54201 24296 ft 341 kts 264°
2026-04-25 14:56 51.74083 1.50386 23779 ft 342 kts 264°
2026-04-25 14:56 51.73832 1.46563 23208 ft 343 kts 264°
2026-04-25 14:57 51.73580 1.42742 22692 ft 342 kts 264°
2026-04-25 14:57 51.73331 1.38933 22179 ft 341 kts 264°
2026-04-25 14:57 51.73084 1.35128 21670 ft 341 kts 264°
2026-04-25 14:57 51.72836 1.31316 21156 ft 341 kts 264°
2026-04-25 14:58 51.72585 1.27505 20644 ft 342 kts 264°
2026-04-25 14:58 51.72333 1.23694 20128 ft 343 kts 264°
2026-04-25 14:58 51.72080 1.19864 19616 ft 344 kts 264°
2026-04-25 14:58 51.71823 1.16023 19101 ft 345 kts 264°
2026-04-25 14:59 51.71564 1.12172 18580 ft 347 kts 264°
2026-04-25 14:59 51.71303 1.08353 18010 ft 338 kts 264°
2026-04-25 14:59 51.71045 1.04626 17510 ft 332 kts 264°
2026-04-25 14:59 51.70791 1.00960 17017 ft 327 kts 264°
2026-04-25 15:00 51.70543 0.97343 16530 ft 323 kts 264°
2026-04-25 15:00 51.70299 0.93769 16052 ft 319 kts 264°
2026-04-25 15:00 51.70058 0.90246 15634 ft 314 kts 264°
2026-04-25 15:00 51.69818 0.86768 15213 ft 310 kts 264°
2026-04-25 15:01 51.69580 0.83340 14792 ft 306 kts 264°
2026-04-25 15:01 51.69343 0.79944 14383 ft 303 kts 264°
2026-04-25 15:01 51.69105 0.76586 13962 ft 301 kts 264°
2026-04-25 15:01 51.68875 0.73356 13548 ft 299 kts 264°
2026-04-25 15:02 51.68639 0.70043 13144 ft 297 kts 264°
2026-04-25 15:02 51.68403 0.66737 12743 ft 296 kts 264°
2026-04-25 15:02 51.68167 0.63440 12334 ft 297 kts 264°
2026-04-25 15:02 51.67930 0.60139 11942 ft 297 kts 264°
2026-04-25 15:03 51.67689 0.56825 11537 ft 298 kts 264°
2026-04-25 15:03 51.67448 0.53517 11142 ft 298 kts 264°
2026-04-25 15:03 51.67209 0.50231 10839 ft 294 kts 264°
2026-04-25 15:03 51.66970 0.46950 10497 ft 293 kts 264°
2026-04-25 15:04 51.66735 0.43706 10163 ft 291 kts 264°
2026-04-25 15:04 51.66499 0.40467 9771 ft 291 kts 264°
2026-04-25 15:04 51.66261 0.37236 9393 ft 289 kts 264°
2026-04-25 15:04 51.66021 0.34031 9028 ft 288 kts 264°
2026-04-25 15:05 51.65781 0.30841 8656 ft 286 kts 264°
2026-04-25 15:05 51.65543 0.27665 8290 ft 284 kts 264°
2026-04-25 15:05 51.65307 0.24515 7934 ft 283 kts 264°
2026-04-25 15:06 51.64848 0.18432 7633 ft 263 kts 264°
2026-04-25 15:06 51.64463 0.15622 7507 ft 254 kts 249°
2026-04-25 15:06 51.63720 0.13477 7311 ft 250 kts 233°
2026-04-25 15:06 51.62598 0.11336 7029 ft 249 kts 231°
2026-04-25 15:07 51.61481 0.09220 6708 ft 248 kts 231°
2026-04-25 15:07 51.60373 0.07114 6327 ft 245 kts 231°
2026-04-25 15:07 51.59274 0.05025 5845 ft 245 kts 231°
2026-04-25 15:07 51.58179 0.02945 5409 ft 243 kts 231°
2026-04-25 15:08 51.57094 0.00884 4955 ft 240 kts 231°
2026-04-25 15:08 51.56025 -0.01148 4612 ft 236 kts 231°
2026-04-25 15:08 51.54963 -0.03161 4304 ft 236 kts 230°
2026-04-25 15:08 51.53904 -0.05171 4008 ft 234 kts 230°
2026-04-25 15:09 51.52851 -0.07164 3708 ft 233 kts 230°
2026-04-25 15:09 51.51805 -0.09141 3420 ft 232 kts 230°
2026-04-25 15:09 51.49799 -0.12930 3191 ft 212 kts 230°
2026-04-25 15:10 51.48868 -0.14690 3101 ft 202 kts 230°
2026-04-25 15:10 51.48106 -0.16489 3050 ft 189 kts 247°
2026-04-25 15:10 51.47806 -0.20486 2810 ft 179 kts 270°
2026-04-25 15:11 51.47803 -0.22457 2626 ft 174 kts 270°
2026-04-25 15:11 51.47801 -0.24370 2418 ft 170 kts 270°
2026-04-25 15:11 51.47799 -0.26193 2217 ft 156 kts 270°
2026-04-25 15:12 51.47795 -0.29519 1806 ft 145 kts 270°
2026-04-25 15:12 51.47792 -0.31127 1611 ft 144 kts 270°
2026-04-25 15:12 51.47789 -0.32728 1419 ft 143 kts 270°
2026-04-25 15:12 51.47788 -0.33248 1353 ft 143 kts 270°
2026-04-25 15:13 51.47783 -0.35912 1033 ft 142 kts 270°
2026-04-25 15:13 51.47777 -0.39063 657 ft 140 kts 270°
2026-04-25 15:13 51.47771 -0.40621 468 ft 139 kts 269°
2026-04-25 15:14 51.47768 -0.42169 255 ft 138 kts 271°
2026-04-25 15:14 51.47775 -0.43677 110 ft 136 kts 271°
2026-04-25 15:14 51.47782 -0.45041 87 ft 97 kts 269°
2026-04-25 15:14 51.47760 -0.45842 81 ft 48 kts 269°
2026-04-25 15:15 51.47762 -0.46301 84 ft 38 kts 270°
2026-04-25 15:15 51.47731 -0.46629 86 ft 25 kts 252°
2026-04-25 15:15 51.47667 -0.46829 87 ft 13 kts 237°
2026-04-25 15:15 51.47595 -0.46921 87 ft 13 kts 240°
2026-04-25 15:16 51.47586 -0.46966 83 ft 0 kts 259°
2026-04-25 15:16 51.47584 -0.46986 84 ft 6 kts 259°
2026-04-25 15:16 51.47584 -0.47004 82 ft 0 kts 272°
2026-04-25 15:18 51.47584 -0.47012 82 ft 5 kts 272°
2026-04-25 15:18 51.47584 -0.47179 85 ft 22 kts 269°
2026-04-25 15:19 51.47562 -0.47348 83 ft 14 kts 213°
2026-04-25 15:19 51.47532 -0.47358 83 ft 14 kts 181°
2026-04-25 15:19 51.47493 -0.47204 82 ft 0 kts 89°